Погода в Макарово

Россия / Тверская область     57°48′45″N   33°50′29″E
темп.,
°C
ветер,
м/с
пор.,
м/с
влажн.,
%
обл.,
%
осадки,
мм/ч
давл.,
гПа
погр.,
м
13 мая, чт
чт1300:00+13в4129199 1.2 1018663
03:00+12в412945 1.2 1017538
06:00+12юв5109097 0.0 1017767
09:00+14ююв35635 0.0 1017847
12:00+17ююв46412 0.0 10171698
15:00+19юв574029 0.0 10152254
18:00+16юв4854100 0.0 10131253
21:00+11юв398896 0.4 1013548
14 мая, пт
пт1400:00+9юв289813 0.0 1013226
03:00+7ююв299710 0.0 1014220
06:00+8ююв39925 0.0 1014299
09:00+14ююв476323 0.0 1014901
12:00+18ююв4747100 0.0 10131433
15:00+18ююв474992 0.0 10121860
18:00+18юв47585 0.3 10111328
21:00+13вюв23855 0.4 101041
15 мая, сб
сб1500:00+11вюв399890 0.0 1009221
03:00+11вюв31099100 0.3 1008287
06:00+11вюв3898100 1.5 1006331
09:00+13ююв3995100 1.5 1006481
12:00+20ю485778 0.3 10051630
15:00+20ю575799 1.8 10041602
18:00+16ююз598570 5.1 1004754
21:00+12ююз41295100 6.6 1005473
16 мая, вс
вс1600:00+12юз3997100 0.6 1008328
03:00+10юз249926 0.6 1010110
06:00+11з129511 0.0 101168
09:00+15вюв0074100 0.0 1012529
12:00+19зюз015199 0.0 10121485
15:00+20з124592 0.1 10121967
18:00+18с1365100 0.0 1012124
21:00+15юв11696 0.0 101316
17 мая, пн
пн1700:00+11ю118145 0.0 101411
03:00+10ююв129061 0.0 101513
06:00+12вюв258982 0.0 1015136
09:00+17юв3569100 0.0 1015530
12:00+21юв4550100 0.0 10141593
15:00+23вюв5646100 0.0 10131674
18:00+22вюв5955100 0.0 10111322
21:00+18вюв51476100 0.2 1010725